Presque Isle, ME

1:03 PM EST on February 24, 2017 (GMT -0500)
Northern Maine Regional At Presque Isle

Weather History for KPQI - May, 2014

Change the Weather History Date:

Saturday, May 17, 2014

  Actual Average Record
Temperature  
Mean Temperature 58 °F -  
Max Temperature 64 °F 65 °F 87 °F (1932)
Min Temperature 53 °F 42 °F 24 °F (1957)
Degree Days  
Heating Degree Days 6    
Growing Degree Days 8 (Base 50)    
Moisture  
Dew Point 50 °F    
Average Humidity 74    
Maximum Humidity 88    
Minimum Humidity 56    
Precipitation  
Precipitation 0.20 in - - ()
Sea Level Pressure  
Sea Level Pressure 30.05 in    
Wind  
Wind Speed 13 mph (SSE)    
Max Wind Speed 26 mph    
Max Gust Speed 34 mph    
Visibility 10 miles    
Events      
Averages and records for this station are not official NWS values.
T = Trace of Precipitation, MM = Missing Value Source: NWS Daily Summary

Daily Weather History Graph

Daily Weather History Graph

Search for Another Location

Airport or City:

Trip Planner

Search our weather history database for the weather conditions in past years. The results will help you decide how hot, cold, wet, or windy it might be!

Date:

Astronomy

May. 17, 2014 Rise Set
Actual Time 4:55 AM EDT 8:02 PM EDT
Civil Twilight 4:19 AM EDT 8:38 PM EDT
Nautical Twilight 3:32 AM EDT 9:25 PM EDT
Astronomical Twilight 2:35 AM EDT 10:23 PM EDT
Moon 10:58 PM EDT (5/17) 7:35 AM EDT (5/17)
Length of Visible Light 16h 19m
Length of Day
15h 06m
Waning Gibbous, 89% of the Moon is Illuminated
May 17
Waning Gibbous
May 21
Last Quarter
May 28
New
Jun 5
First Quarter
Jun 13
Full

Hourly Weather History & Observations

Time (EDT) Temp. Dew Point Humidity Pressure Visibility Wind Dir Wind Speed Gust Speed Precip Events Conditions
12:15 AM 59.0 °F 48.2 °F 67% 30.15 in 10.0 mi SSE 12.7 mph 18.4 mph N/A   Scattered Clouds
12:35 AM 59.0 °F 48.2 °F 67% 30.14 in 10.0 mi SSE 12.7 mph 17.3 mph N/A   Scattered Clouds
12:55 AM 57.2 °F 48.2 °F 72% 30.13 in 10.0 mi SSE 9.2 mph - N/A   Partly Cloudy
1:15 AM 57.2 °F 48.2 °F 72% 30.12 in 10.0 mi SSE 11.5 mph 16.1 mph N/A   Clear
1:35 AM 57.2 °F 48.2 °F 72% 30.12 in 10.0 mi SSE 9.2 mph - N/A   Clear
1:55 AM 55.4 °F 48.2 °F 77% 30.11 in 10.0 mi SSE 12.7 mph - N/A   Partly Cloudy
2:15 AM 55.4 °F 48.2 °F 77% 30.10 in 10.0 mi SSE 8.1 mph - N/A   Partly Cloudy
2:35 AM 55.4 °F 46.4 °F 72% 30.10 in 10.0 mi SSE 10.4 mph - N/A   Scattered Clouds
2:55 AM 55.4 °F 46.4 °F 72% 30.09 in 10.0 mi SSE 10.4 mph - N/A   Mostly Cloudy
3:15 AM 55.4 °F 46.4 °F 72% 30.09 in 10.0 mi SSE 12.7 mph 18.4 mph N/A   Mostly Cloudy
3:35 AM 55.4 °F 46.4 °F 72% 30.09 in 10.0 mi SSE 11.5 mph 17.3 mph N/A   Mostly Cloudy
3:55 AM 53.6 °F 46.4 °F 77% 30.08 in 10.0 mi SSE 11.5 mph - N/A   Mostly Cloudy
4:15 AM 53.6 °F 46.4 °F 77% 30.08 in 10.0 mi SSE 12.7 mph - N/A   Overcast
4:35 AM 53.6 °F 46.4 °F 77% 30.07 in 10.0 mi SSE 12.7 mph - N/A   Mostly Cloudy
4:55 AM 53.6 °F 46.4 °F 77% 30.08 in 10.0 mi SSE 10.4 mph - N/A   Mostly Cloudy
5:15 AM 53.6 °F 48.2 °F 82% 30.07 in 10.0 mi SSE 11.5 mph 16.1 mph N/A   Overcast
5:35 AM 55.4 °F 48.2 °F 77% 30.07 in 10.0 mi SE 12.7 mph 18.4 mph N/A   Overcast
5:55 AM 55.4 °F 48.2 °F 77% 30.08 in 10.0 mi SSE 11.5 mph - N/A   Overcast
6:15 AM 55.4 °F 48.2 °F 77% 30.07 in 10.0 mi SE 12.7 mph - N/A   Overcast
6:35 AM 55.4 °F 48.2 °F 77% 30.06 in 10.0 mi SSE 15.0 mph 21.9 mph N/A   Overcast
6:55 AM 55.4 °F 48.2 °F 77% 30.06 in 10.0 mi SE 12.7 mph 20.7 mph N/A   Overcast
7:15 AM 55.4 °F 48.2 °F 77% 30.07 in 10.0 mi SE 17.3 mph 20.7 mph N/A   Overcast
7:35 AM 55.4 °F 48.2 °F 77% 30.07 in 10.0 mi SSE 11.5 mph 19.6 mph N/A   Overcast
7:55 AM 57.2 °F 48.2 °F 72% 30.07 in 10.0 mi SE 10.4 mph 18.4 mph N/A   Overcast
8:15 AM 57.2 °F 48.2 °F 72% 30.06 in 10.0 mi SE 11.5 mph - N/A   Overcast
8:35 AM 57.2 °F 48.2 °F 72% 30.05 in 10.0 mi SSE 9.2 mph 17.3 mph N/A   Overcast
8:55 AM 60.8 °F 50.0 °F 68% 30.04 in 10.0 mi SSE 12.7 mph - N/A   Overcast
9:15 AM 62.6 °F 50.0 °F 63% 30.03 in 10.0 mi SSE 13.8 mph 18.4 mph N/A   Overcast
9:35 AM 62.6 °F 50.0 °F 63% 30.03 in 10.0 mi SSE 20.7 mph 27.6 mph N/A   Overcast
9:55 AM 62.6 °F 50.0 °F 63% 30.03 in 10.0 mi South 13.8 mph 31.1 mph N/A   Overcast
10:15 AM 64.4 °F 48.2 °F 56% 30.03 in 10.0 mi South 16.1 mph 33.4 mph N/A   Overcast
10:35 AM 64.4 °F 48.2 °F 56% 30.03 in 10.0 mi SSE 21.9 mph 29.9 mph N/A   Overcast
10:55 AM 64.4 °F 48.2 °F 56% 30.03 in 10.0 mi SSE 19.6 mph 33.4 mph N/A   Overcast
11:15 AM 64.4 °F 48.2 °F 56% 30.03 in 10.0 mi SSE 15.0 mph 31.1 mph N/A   Overcast
11:35 AM 64.4 °F 48.2 °F 56% 30.03 in 10.0 mi South 24.2 mph 34.5 mph N/A   Overcast
11:55 AM 64.4 °F 48.2 °F 56% 30.03 in 10.0 mi SSE 21.9 mph 31.1 mph N/A   Overcast
12:15 PM 64.4 °F 48.2 °F 56% 30.03 in 10.0 mi SSE 24.2 mph 32.2 mph N/A   Overcast
12:35 PM 64.4 °F 48.2 °F 56% 30.04 in 10.0 mi SSE 18.4 mph 32.2 mph N/A   Overcast
12:55 PM 62.6 °F 48.2 °F 59% 30.04 in 9.0 mi SSE 20.7 mph 29.9 mph N/A   Overcast
1:15 PM 60.8 °F 51.8 °F 72% 30.02 in 9.0 mi SE 13.8 mph 18.4 mph 0.03 in   Overcast
1:35 PM 60.8 °F 51.8 °F 72% 29.98 in 10.0 mi SE 15.0 mph 24.2 mph 0.04 in   Overcast
1:55 PM 60.8 °F 51.8 °F 72% 30.00 in 10.0 mi SE 11.5 mph - 0.04 in   Mostly Cloudy
2:15 PM 60.8 °F 51.8 °F 72% 29.98 in 10.0 mi ESE 15.0 mph 24.2 mph N/A   Overcast
2:35 PM 60.8 °F 51.8 °F 72% 30.00 in 10.0 mi South 16.1 mph 20.7 mph N/A   Mostly Cloudy
2:55 PM 60.8 °F 51.8 °F 72% 30.00 in 10.0 mi SSE 15.0 mph 20.7 mph N/A   Overcast
3:15 PM 62.6 °F 50.0 °F 63% 29.99 in 10.0 mi SSE 21.9 mph 29.9 mph N/A   Overcast
3:35 PM 62.6 °F 50.0 °F 63% 29.99 in 10.0 mi SSE 17.3 mph 27.6 mph N/A   Overcast
3:55 PM 62.6 °F 50.0 °F 63% 29.99 in 10.0 mi SSE 24.2 mph 31.1 mph N/A   Overcast
4:15 PM 62.6 °F 50.0 °F 63% 30.00 in 10.0 mi SSE 20.7 mph 25.3 mph N/A   Overcast
4:35 PM 62.6 °F 50.0 °F 63% 30.00 in 10.0 mi SSE 26.5 mph 31.1 mph N/A   Overcast
4:55 PM 60.8 °F 50.0 °F 68% 30.01 in 10.0 mi SSE 23.0 mph 33.4 mph N/A   Overcast
5:15 PM 57.2 °F 51.8 °F 82% 30.01 in 10.0 mi SSE 13.8 mph 18.4 mph 0.01 in   Overcast
5:35 PM 57.2 °F 51.8 °F 82% 30.01 in 7.0 mi SSE 11.5 mph 18.4 mph 0.03 in   Overcast
5:55 PM 57.2 °F 51.8 °F 82% 30.01 in 8.0 mi SSE 13.8 mph 18.4 mph 0.09 in   Mostly Cloudy
6:15 PM 57.2 °F 51.8 °F 82% 30.01 in 10.0 mi SSE 12.7 mph - 0.01 in   Overcast
6:35 PM 57.2 °F 51.8 °F 82% 30.01 in 10.0 mi SSE 11.5 mph 20.7 mph 0.01 in   Overcast
6:55 PM 57.2 °F 51.8 °F 82% 30.01 in 9.0 mi SSE 15.0 mph 20.7 mph 0.01 in   Overcast
7:15 PM 57.2 °F 51.8 °F 82% 30.01 in 10.0 mi SSE 18.4 mph 26.5 mph 0.01 in   Overcast
7:35 PM 55.4 °F 51.8 °F 88% 30.01 in 10.0 mi SSE 13.8 mph 18.4 mph 0.01 in   Overcast
7:55 PM 55.4 °F 51.8 °F 88% 30.02 in 5.0 mi SSE 11.5 mph - 0.03 in   Overcast
8:15 PM 55.4 °F 51.8 °F 88% 30.03 in 9.0 mi SSE 8.1 mph - N/A   Overcast
8:35 PM 55.4 °F 51.8 °F 88% 30.03 in 8.0 mi SSE 8.1 mph - 0.01 in   Overcast
8:55 PM 55.4 °F 51.8 °F 88% 30.03 in 10.0 mi SSE 9.2 mph - 0.01 in   Overcast
9:15 PM 55.4 °F 51.8 °F 88% 30.04 in 10.0 mi South 6.9 mph - 0.01 in   Overcast
9:35 PM 55.4 °F 51.8 °F 88% 30.04 in 8.0 mi South 8.1 mph - 0.01 in   Mostly Cloudy
9:55 PM 55.4 °F 51.8 °F 88% 30.04 in 6.0 mi South 8.1 mph - 0.02 in   Overcast
10:15 PM 55.4 °F 51.8 °F 88% 30.04 in 10.0 mi SSE 9.2 mph 16.1 mph N/A   Overcast
10:35 PM 55.4 °F 50.0 °F 82% 30.05 in 10.0 mi South 10.4 mph - N/A   Overcast
10:55 PM 55.4 °F 51.8 °F 88% 30.06 in 10.0 mi South 9.2 mph - N/A   Overcast
11:15 PM 55.4 °F 51.8 °F 88% 30.05 in 10.0 mi SSE 6.9 mph - N/A   Overcast
11:35 PM 55.4 °F 50.0 °F 82% 30.06 in 10.0 mi South 5.8 mph - N/A   Overcast
11:55 PM 55.4 °F 50.0 °F 82% 30.06 in 10.0 mi South 4.6 mph - N/A   Overcast